FW3129 Weather Reports


Display with metric or nautical units.
time (UTC)temp
F
wind
direction
speed
MPH
gust
MPH
rain 1hr
in
rain 24hr
in
rain mn
in
humidity
%
barometer
mb
20210621135029 86 0 4.0 12.0 0.00 0.04 0.00 43 1021.3
20210621134518 85 187 4.0 8.0 0.00 0.04 0.00 42 1021.3
20210621134031 86 150 4.0 9.0 0.00 0.04 0.00 41 1021.3
20210621133028 85 143 3.0 8.0 0.00 0.04 0.00 40 1021.3
20210621133021 85 137 4.0 8.0 0.00 0.04 0.00 40 1021.2
20210621132027 85 158 5.0 14.0 0.00 0.04 0.00 38 1021.3
20210621131513 85 169 4.0 10.0 0.00 0.04 0.00 36 1021.2
20210621131027 85 148 4.0 10.0 0.00 0.04 0.00 38 1021.0
20210621130049 85 147 1.0 9.0 0.00 0.04 0.00 39 1021.0
20210621130026 85 160 3.0 10.0 0.00 0.04 0.00 39 1021.0
20210621125026 85 144 3.0 7.0 0.00 0.04 0.00 36 1021.0
20210621124524 84 245 2.0 10.0 0.00 0.04 0.00 35 1020.9
20210621124026 84 132 5.0 11.0 0.00 0.04 0.00 35 1020.7
20210621123024 84 123 5.0 11.0 0.00 0.04 0.00 31 1020.7
20210621123009 84 106 4.0 10.0 0.00 0.04 0.00 30 1020.6
20210621122023 84 0 5.0 11.0 0.00 0.04 0.00 30 1020.7
20210621121513 84 137 5.0 11.0 0.00 0.04 0.00 24 1020.5
20210621121023 84 128 3.0 9.0 0.00 0.04 0.00 18 1020.3
20210621120033 84 131 3.0 9.0 0.00 0.04 0.00 18 1020.3
20210621120023 84 137 3.0 9.0 0.00 0.04 0.00 18 1020.3
20210621115021 84 148 2.0 6.0 0.00 0.04 0.00 17 1020.0
20210621114508 84 101 1.0 9.0 0.00 0.04 0.00 17 1019.9
20210621114021 84 133 4.0 9.0 0.00 0.04 0.00 18 1020.0
20210621113021 84 129 4.0 10.0 0.00 0.04 0.00 18 1019.6
20210621113011 84 90 3.0 10.0 0.00 0.04 0.00 18 1019.7
20210621112019 84 119 4.0 10.0 0.00 0.04 0.00 20 1019.6
20210621111527 84 105 4.0 8.0 0.00 0.04 0.00 19 1019.5
20210621111019 84 116 4.0 9.0 0.00 0.04 0.00 20 1019.6
20210621110018 84 129 3.0 9.0 0.00 0.04 0.00 22 1019.6
20210621110011 83 129 4.0 8.0 0.00 0.04 0.00 21 1019.6
20210621105017 84 130 3.0 11.0 0.00 0.04 0.00 21 1019.6
20210621104512 83 94 2.0 10.0 0.00 0.04 0.00 19 1019.4
20210621104018 84 128 4.0 11.0 0.00 0.04 0.00 20 1019.3
20210621103017 84 132 4.0 10.0 0.00 0.04 0.00 20 1019.3
20210621103012 83 160 3.0 10.0 0.00 0.04 0.00 20 1019.3
20210621102016 84 119 4.0 12.0 0.00 0.04 0.00 19 1019.3
20210621101523 83 103 4.0 11.0 0.00 0.04 0.00 20 1019.2
20210621101017 84 123 4.0 10.0 0.00 0.04 0.00 19 1019.0
20210621100015 84 127 4.0 10.0 0.00 0.04 0.00 18 1019.0
20210621100012 83 103 4.0 10.0 0.00 0.04 0.00 17 1018.9
20210621095015 84 125 5.0 11.0 0.00 0.04 0.00 17 1019.0
20210621094510 83 153 4.0 12.0 0.00 0.04 0.00 16 1018.8
20210621094014 84 122 4.0 12.0 0.00 0.04 0.00 16 1019.0
20210621093013 84 116 3.0 8.0 0.00 0.04 0.00 14 1019.0
20210621093010 83 94 3.0 8.0 0.00 0.04 0.00 14 1018.7
20210621092013 84 120 4.0 9.0 0.00 0.04 0.00 15 1019.0
20210621091528 83 165 4.0 8.0 0.00 0.04 0.00 14 1018.8
20210621091012 84 120 3.0 8.0 0.00 0.04 0.00 17 1019.0
20210621090039 83 134 2.0 6.0 0.00 0.04 0.00 16 1018.7
20210621090011 84 116 3.0 6.0 0.00 0.04 0.00 16 1018.6
20210621085011 84 125 3.0 8.0 0.00 0.04 0.00 17 1018.6
20210621084512 83 127 3.0 7.0 0.00 0.04 0.00 17 1018.7
20210621084011 84 134 2.0 6.0 0.00 0.04 0.00 18 1018.6
20210621083024 83 102 0.0 6.0 0.00 0.04 0.00 17 1018.5
20210621083009 84 0 2.0 7.0 0.00 0.04 0.00 17 1018.6
20210621082009 84 149 1.0 5.0 0.00 0.04 0.00 17 1018.6
20210621081510 83 174 0.0 4.0 0.00 0.04 0.00 16 1018.5
20210621081009 84 161 1.0 5.0 0.00 0.04 0.00 16 1018.6
20210621080021 83 111 1.0 5.0 0.00 0.04 0.00 15 1018.5
20210621080007 84 142 2.0 6.0 0.00 0.04 0.00 16 1018.6
20210621075007 84 130 2.0 9.0 0.00 0.04 0.00 16 1018.6
20210621074516 83 0 2.0 8.0 0.00 0.04 0.00 16 1018.4
20210621074006 84 0 3.0 7.0 0.00 0.04 0.00 18 1018.3
20210621073014 83 103 3.0 7.0 0.00 0.04 0.00 18 1018.4
20210621073005 84 118 3.0 7.0 0.00 0.04 0.00 18 1018.3
20210621072005 84 134 3.0 9.0 0.00 0.04 0.00 18 1018.6
20210621071513 83 100 3.0 9.0 0.00 0.04 0.00 18 1018.5
20210621071005 84 120 3.0 9.0 0.00 0.04 0.00 19 1018.6
20210621070012 83 125 3.0 10.0 0.00 0.04 0.00 16 1018.6
20210621070003 84 125 3.0 11.0 0.00 0.04 0.00 17 1018.6
20210621065002 84 118 4.0 10.0 0.00 0.04 0.00 16 1018.6
20210621064510 84 110 4.0 9.0 0.00 0.04 0.00 14 1018.6
20210621064003 84 0 3.0 10.0 0.00 0.04 0.00 16 1019.0
20210621063038 84 143 3.0 8.0 0.00 0.04 0.00 14 1018.9
20210621063001 84 0 3.0 8.0 0.00 0.04 0.00 15 1019.0
20210621062002 84 0 1.0 6.0 0.00 0.04 0.00 14 1019.0
20210621061513 84 169 1.0 6.0 0.00 0.04 0.00 13 1019.0
20210621061002 84 144 2.0 7.0 0.00 0.04 0.00 12 1019.0
20210621060000 84 163 3.0 7.0 0.00 0.04 0.00 13 1019.3
20210621055000 84 160 3.0 7.0 0.00 0.04 0.00 14 1019.3
20210621054510 84 136 3.0 8.0 0.00 0.04 0.00 13 1019.4
20210621054000 84 150 3.0 8.0 0.00 0.04 0.00 13 1019.6
20210621053037 84 113 1.0 5.0 0.00 0.04 0.00 12 1019.6
20210621052958 84 146 1.0 6.0 0.00 0.04 0.00 13 1019.6
20210621051958 84 156 2.0 8.0 0.00 0.04 0.00 12 1019.6
20210621051509 84 134 1.0 4.0 0.00 0.04 0.00 11 1019.8
20210621050957 84 144 1.0 4.0 0.00 0.04 0.00 11 1020.0
20210621050018 84 175 0.0 7.0 0.00 0.04 0.00 13 1020.0
20210621045956 84 124 2.0 8.0 0.00 0.04 0.00 14 1020.0
20210621044955 84 116 3.0 7.0 0.00 0.04 0.00 15 1020.0
20210621044540 84 68 1.0 6.0 0.00 0.04 0.00 15 1020.0
20210621043954 84 136 2.0 5.0 0.00 0.04 0.00 15 1020.3
20210621043021 84 169 1.0 4.0 0.00 0.04 0.00 11 1020.2
20210621042954 84 148 1.0 4.0 0.00 0.04 0.00 12 1020.3
20210621041953 84 173 1.0 3.0 0.00 0.04 0.00 11 1020.3
20210621041559 83 191 0.0 4.0 0.00 0.04 0.00 9 1020.4
20210621040952 84 176 1.0 4.0 0.00 0.04 0.00 8 1020.7
20210621040018 82 0 0.0 0.0 0.00 0.04 0.00 11 1020.4
20210621035951 83 0 0.0 0.0 0.00 0.04 0.04 12 1020.7
20210621034950 82 0 0.0 0.0 0.00 0.04 0.04 18 1020.3
20210621034519 82 0 0.0 0.0 0.00 0.04 0.04 18 1020.6
20210621033950 83 0 0.0 0.0 0.00 0.04 0.04 18 1020.7
20210621033010 83 0 0.0 0.0 0.00 0.04 0.04 17 1020.5
20210621032356 83 230 0.0 1.0 0.00 0.04 0.04 23 1020.7
20210621031934 84 209 0.0 1.0 0.00 0.04 0.04 25 1020.7
20210621031708 84 211 0.0 1.0 0.00 0.04 0.04 28 1020.7
20210621031544 84 0 0.0 1.0 0.00 0.04 0.04 26 1020.5
20210621030142 85 179 1.0 4.0 0.00 0.04 0.04 16 1020.7
20210621030026 84 0 0.0 4.0 0.00 0.04 0.04 16 1020.6
20210621025342 85 149 1.0 5.0 0.00 0.04 0.04 16 1020.7
20210621025121 84 139 1.0 5.0 0.00 0.04 0.04 16 1020.7
20210621024511 84 105 0.0 5.0 0.00 0.04 0.04 14 1020.5
20210621024429 84 97 0.0 5.0 0.00 0.04 0.04 14 1020.7
20210621024225 84 0 0.0 0.0 0.00 0.04 0.04 14 1020.7
20210621023422 84 0 0.0 0.0 0.00 0.04 0.04 17 1020.7
20210621023042 84 0 0.0 0.0 0.00 0.04 0.04 18 1020.4
20210621022421 84 0 0.0 0.0 0.00 0.04 0.04 18 1020.7
20210621021513 83 0 0.0 0.0 0.00 0.04 0.04 19 1020.5
20210621021422 84 0 0.0 0.0 0.00 0.04 0.04 20 1020.3
20210621020420 83 0 0.0 0.0 0.00 0.04 0.04 22 1020.3
20210621020017 83 0 0.0 0.0 0.00 0.04 0.04 21 1020.3
20210621015419 83 0 0.0 0.0 0.00 0.04 0.04 24 1020.3
20210621014511 82 0 0.0 0.0 0.00 0.04 0.04 27 1020.3
20210621014420 82 0 0.0 0.0 0.00 0.04 0.04 27 1020.3
20210621013418 82 0 0.0 0.0 0.00 0.04 0.04 30 1020.0
20210621013011 81 0 0.0 0.0 0.00 0.04 0.04 32 1020.1
20210621012418 82 0 0.0 0.0 0.00 0.04 0.04 34 1020.0
20210621011602 81 0 0.0 0.0 0.00 0.04 0.04 36 1020.1
20210621011417 81 0 0.0 0.0 0.00 0.04 0.04 36 1020.3
20210621010417 81 0 0.0 0.0 0.00 0.04 0.04 37 1020.3
20210621010012 80 0 0.0 0.0 0.00 0.04 0.04 36 1020.2
20210621005416 80 0 0.0 0.0 0.00 0.04 0.04 31 1020.0
20210621004537 80 0 0.0 0.0 0.00 0.04 0.04 36 1019.9
20210621004415 80 219 0.0 0.0 0.00 0.04 0.04 36 1020.0
20210621003415 80 0 0.0 0.0 0.00 0.04 0.04 24 1019.6
20210621003024 80 0 0.0 0.0 0.00 0.04 0.04 23 1019.5
20210621002414 80 0 0.0 0.0 0.00 0.04 0.04 21 1019.6
20210621001510 79 0 0.0 0.0 0.00 0.04 0.04 17 1019.4
20210621001413 80 219 0.0 0.0 0.00 0.04 0.04 17 1019.3
20210621000414 80 0 0.0 0.0 0.00 0.04 0.04 16 1019.3
20210621000013 79 0 0.0 0.0 0.00 0.04 0.04 16 1019.2
20210620235412 79 219 0.0 0.0 0.00 0.04 0.04 18 1019.3
20210620234514 78 0 0.0 1.0 0.00 0.04 0.04 16 1019.3
20210620234412 79 231 0.0 1.0 0.00 0.04 0.04 16 1019.3
20210620233411 79 215 1.0 3.0 0.00 0.04 0.04 15 1019.3
20210620233021 78 226 0.0 2.0 0.01 0.04 0.04 12 1019.3
20210620232410 78 234 0.0 3.0 0.04 0.04 0.04 15 1019.3
20210620231510 78 105 0.0 1.0 0.04 0.04 0.04 11 1019.5
20210620231409 78 0 0.0 0.0 0.04 0.04 0.04 12 1019.6
20210620230410 78 105 0.0 0.0 0.04 0.04 0.04 12 1019.3
20210620230018 78 0 0.0 1.0 0.04 0.04 0.04 11 1019.4
20210620225407 78 106 1.0 3.0 0.04 0.04 0.04 13 1019.0
20210620224517 78 100 1.0 3.0 0.04 0.04 0.04 15 1018.8
20210620224407 78 116 0.0 3.0 0.04 0.04 0.04 16 1019.0
20210620223406 79 353 0.0 4.0 0.04 0.04 0.04 31 1019.0
20210620223010 79 0 0.0 5.0 0.03 0.03 0.03 36 1019.1
20210620222405 80 342 3.0 8.0 0.00 0.00 0.00 52 1019.0
20210620221511 80 6 3.0 14.0 0.00 0.00 0.00 60 1019.3
20210620221404 81 336 5.0 15.0 0.00 0.00 0.00 58 1019.3
20210620220405 83 328 5.0 15.0 0.00 0.00 0.00 61 1020.0
20210620220017 84 44 4.0 10.0 0.00 0.00 0.00 60 1019.9
20210620215446 86 281 2.0 10.0 0.00 0.00 0.00 47 1019.6
20210620214520 86 143 2.0 5.0 0.00 0.00 0.00 23 1019.3
20210620214447 86 115 3.0 5.0 0.00 0.00 0.00 24 1019.3
20210620213445 87 115 3.0 7.0 0.00 0.00 0.00 26 1019.6
20210620213021 86 94 1.0 7.0 0.00 0.00 0.00 26 1019.6
20210620212444 87 116 3.0 7.0 0.00 0.00 0.00 30 1019.3
20210620211513 86 93 1.0 8.0 0.00 0.00 0.00 27 1019.1
20210620211443 87 108 3.0 8.0 0.00 0.00 0.00 28 1019.3
20210620210443 87 108 2.0 8.0 0.00 0.00 0.00 36 1019.0
20210620210021 87 95 1.0 7.0 0.00 0.00 0.00 35 1019.0
20210620205443 88 135 3.0 8.0 0.00 0.00 0.00 40 1019.0
20210620204525 87 129 3.0 9.0 0.00 0.00 0.00 48 1018.4
20210620204442 88 126 4.0 9.0 0.00 0.00 0.00 49 1018.3
20210620203441 88 136 5.0 11.0 0.00 0.00 0.00 52 1018.3
20210620203022 88 207 3.0 10.0 0.00 0.00 0.00 52 1018.4
20210620202441 90 138 4.0 9.0 0.00 0.00 0.00 54 1018.6
20210620201511 89 0 3.0 12.0 0.00 0.00 0.00 55 1018.2
20210620201440 90 0 5.0 13.0 0.00 0.00 0.00 56 1018.3
20210620200439 89 142 5.0 13.0 0.00 0.00 0.00 54 1018.3
20210620200054 89 158 2.0 12.0 0.00 0.00 0.00 54 1018.4
20210620195440 89 159 4.0 11.0 0.00 0.00 0.00 58 1018.6
20210620194515 89 164 6.0 13.0 0.00 0.00 0.00 58 1018.7
20210620194439 90 146 5.0 14.0 0.00 0.00 0.00 60 1019.0
20210620193437 91 137 5.0 12.0 0.00 0.00 0.00 60 1019.0
20210620193041 90 128 6.0 11.0 0.00 0.00 0.00 60 1018.9
20210620192436 90 135 5.0 14.0 0.00 0.00 0.00 60 1019.0
20210620191519 90 0 5.0 14.0 0.00 0.00 0.00 58 1019.0
20210620191435 90 0 6.0 14.0 0.00 0.00 0.00 59 1019.0
20210620191338 90 126 6.0 14.0 0.00 0.00 0.00 60 1019.0
20210620190337 90 137 5.0 13.0 0.00 0.00 0.00 60 1019.0
20210620190013 90 148 6.0 12.0 0.00 0.00 0.00 59 1019.3
20210620185337 90 124 6.0 15.0 0.00 0.00 0.00 56 1019.6
20210620184515 90 94 4.0 13.0 0.00 0.00 0.00 57 1019.4
20210620184336 90 130 6.0 14.0 0.00 0.00 0.00 57 1019.6
20210620183336 90 122 5.0 12.0 0.00 0.00 0.00 56 1019.6
20210620183011 90 118 5.0 12.0 0.00 0.00 0.00 56 1019.5
20210620182337 90 0 5.0 11.0 0.00 0.00 0.00 53 1019.6
20210620181527 89 82 4.0 12.0 0.00 0.00 0.00 51 1019.4
20210620181336 90 123 6.0 12.0 0.00 0.00 0.00 52 1019.6
20210620180335 90 130 5.0 12.0 0.00 0.00 0.00 53 1019.6
20210620180048 90 178 5.0 11.0 0.00 0.00 0.00 55 1019.5
20210620175334 90 123 6.0 12.0 0.00 0.00 0.00 54 1019.6
20210620174609 90 98 5.0 12.0 0.00 0.00 0.00 56 1019.7
20210620174334 90 0 7.0 13.0 0.00 0.00 0.00 58 1019.6
20210620173334 91 135 4.0 12.0 0.00 0.00 0.00 59 1020.0
20210620173032 91 257 4.0 11.0 0.00 0.00 0.00 59 1019.9
20210620172334 91 131 4.0 9.0 0.00 0.00 0.00 55 1020.0
20210620171525 90 88 2.0 11.0 0.00 0.00 0.00 56 1020.0
20210620171333 90 136 5.0 11.0 0.00 0.00 0.00 57 1020.0
20210620170333 89 128 6.0 16.0 0.00 0.00 0.00 57 1020.0
20210620170014 89 93 7.0 11.0 0.00 0.00 0.00 56 1020.1
20210620165332 89 133 5.0 12.0 0.00 0.00 0.00 49 1020.0
20210620164512 89 188 4.0 12.0 0.00 0.00 0.00 51 1020.1
20210620164333 90 139 4.0 12.0 0.00 0.00 0.00 50 1020.3
20210620163332 90 143 4.0 10.0 0.00 0.00 0.00 49 1020.3
20210620163009 89 111 5.0 9.0 0.00 0.00 0.00 49 1020.2
20210620162331 90 132 4.0 10.0 0.00 0.00 0.00 47 1020.3
20210620161536 89 99 4.0 11.0 0.00 0.00 0.00 53 1020.3
20210620161331 90 154 6.0 11.0 0.00 0.00 0.00 54 1020.3
20210620160332 89 145 6.0 13.0 0.00 0.00 0.00 54 1020.3
20210620160014 89 134 6.0 12.0 0.00 0.00 0.00 51 1020.4
20210620155330 89 135 6.0 12.0 0.00 0.00 0.00 47 1020.3
20210620154533 88 204 7.0 13.0 0.00 0.00 0.00 46 1020.6
20210620154330 89 137 6.0 12.0 0.00 0.00 0.00 45 1020.7
20210620153330 90 138 5.0 11.0 0.00 0.00 0.00 50 1020.7
20210620153013 89 146 4.0 11.0 0.00 0.00 0.00 45 1020.6
20210620152329 89 151 5.0 12.0 0.00 0.00 0.00 47 1020.7
20210620151540 87 138 4.0 9.0 0.00 0.00 0.00 37 1020.8
20210620151329 87 0 5.0 10.0 0.00 0.00 0.00 36 1021.0
20210620150328 88 150 5.0 9.0 0.00 0.00 0.00 34 1021.0
20210620150019 87 105 4.0 10.0 0.00 0.00 0.00 30 1021.0
20210620145328 87 151 5.0 10.0 0.00 0.00 0.00 30 1021.0
20210620144536 86 200 5.0 10.0 0.00 0.00 0.00 28 1021.1
20210620144328 87 148 5.0 10.0 0.00 0.00 0.00 29 1021.3
20210620143327 87 145 4.0 9.0 0.00 0.00 0.00 31 1021.0
20210620143018 87 186 3.0 8.0 0.00 0.00 0.00 29 1021.0
20210620142326 87 147 5.0 10.0 0.00 0.00 0.00 29 1021.0
20210620141509 86 138 5.0 10.0 0.00 0.00 0.00 30 1020.9
20210620141326 87 159 4.0 10.0 0.00 0.00 0.00 32 1021.0
20210620140326 87 163 5.0 11.0 0.00 0.00 0.00 32 1020.7
20210620140010 87 231 4.0 8.0 0.00 0.00 0.00 29 1020.7